Location: B�rgermoos
(47.6500°N, 9.0667°E)
Time: 04:59:28
(UTC+00:00)

Vanguard 2 Rocket - Pass Details

Date: 12 August 2021
Orbit: 556 x 3323 km, 32.9° (Epoch: 27 September)

Event Time Altitude Azimuth Distance (km) Brightness Sun altitude
Rises 05:58:27 0° 250° (WSW) 3,816 9.5 15.9°
Reaches altitude 10° 06:02:52 10° 226° (SW) 2,401 8.7 16.6°
Maximum altitude 06:05:29 14° 196° (SSW) 1,925 8.5 17.1°
Drops below altitude 10° 06:07:46 10° 165° (SSE) 2,006 8.9 17.5°
Sets 06:10:51 0° 137° (SE) 2,760 10.0 18.0°
